Location: Hilton Head Island
(32.2163°N, 80.7526°W)
Time: 07:11:21
(UTC-04:00)

Altair - Pass Details

Date: 22 February 2026
Orbit: 1502 x 1682 km, 47.2° (Epoch: 8 March)

Event Time Altitude Azimuth Distance (km) Brightness Sun altitude
Exits shadow 04:23:28 51° 330° (NNW) 1,832 7.6 -33.4°
Maximum altitude 04:23:37 51° 333° (NNW) 1,832 7.6 -33.4°
Drops below altitude 10° 04:32:39 10° 48° (NE) 3,716 10.1 -31.5°
Sets 04:35:54 0° 53° (NE) 4,723 10.9 -30.8°
